EST,Max TemperatureF,Mean TemperatureF,Min TemperatureF,Max Dew PointF,MeanDew PointF,Min DewpointF,Max Humidity, Mean Humidity, Min Humidity, Max Sea Level PressureIn, Mean Sea Level PressureIn, Min Sea Level PressureIn, Max VisibilityMiles, Mean VisibilityMiles, Min VisibilityMiles, Max Wind SpeedMPH, Mean Wind SpeedMPH, Max Gust SpeedMPH,PrecipitationIn, CloudCover, Events, WindDirDegrees
2013-1-1,21,18,16,14,11,9,82,74,62,30.08,30.01,29.97,10,10,3,14,6,21,0.00,8,Snow,261
2013-1-2,22,19,16,19,15,10,89,82,75,30.06,30.02,29.96,10,8,2,14,8,18,0.00,8,Snow,226
2013-1-3,26,24,21,22,19,17,88,83,78,30.03,29.98,29.92,10,9,2,18,8,26,0.00,8,Snow,236
2013-1-4,26,22,18,22,19,16,90,81,74,30.06,29.93,29.87,10,10,7,22,16,33,0.00,5,,240
2013-1-5,35,20,6,32,19,2,90,86,79,30.14,30.01,29.83,10,6,0,17,4,24,0.00,6,Fog-Snow,198
2013-1-6,33,29,25,32,26,20,91,82,70,30.20,29.93,29.75,10,8,1,15,9,23,0.00,8,Snow,286
2013-1-7,36,28,21,28,23,17,87,74,59,30.21,30.07,29.95,10,10,10,26,11,34,0.00,3,,207
2013-1-8,37,33,29,32,28,23,90,80,71,30.11,30.05,29.97,10,8,2,15,9,21,0.00,3,,192
2013-1-9,39,35,31,32,27,23,85,72,57,30.35,30.04,29.82,10,10,3,24,14,36,0.00,5,Snow,243
2013-1-10,40,29,18,30,22,15,90,72,49,30.48,30.35,30.08,10,10,1,16,4,21,0.00,1,Rain-Snow,136
2013-1-11,43,38,33,42,37,30,93,91,86,30.04,29.76,29.64,10,3,0,18,11,25,0.00,8,Fog-Rain-Snow,167
2013-1-12,51,42,33,46,37,25,93,77,42,29.90,29.77,29.66,10,10,5,26,12,34,0.00,4,Rain-Snow,221
2013-1-13,33,26,19,31,26,15,91,88,81,29.98,29.86,29.78,10,8,2,15,3,24,0.00,8,Snow,277
2013-1-14,20,16,13,15,13,10,87,82,75,30.32,30.23,29.98,10,7,1,14,8,21,0.00,7,Snow,237
2013-1-15,24,18,13,18,15,10,86,79,71,30.32,30.23,30.03,10,10,7,13,6,16,0.00,5,Snow,221
2013-1-16,28,22,16,26,20,13,88,84,73,30.02,29.79,29.63,10,7,1,23,9,34,0.00,5,Snow,228
2013-1-17,25,18,12,19,11,4,83,75,60,30.25,30.12,29.92,10,7,1,17,7,24,0.00,8,Snow,311
2013-1-18,36,17,-2,31,13,-8,83,79,69,30.29,30.05,29.74,10,9,2,23,8,31,0.00,6,Snow,210
2013-1-19,37,34,29,33,32,25,89,84,71,29.78,29.64,29.43,10,9,1,33,12,46,0.00,8,Rain-Snow,227
2013-1-20,28,18,8,25,7,1,85,74,55,30.08,29.94,29.47,10,5,0,28,15,47,0.00,8,Snow,271
2013-1-21,8,3,-4,2,-5,-12,76,68,56,30.01,29.92,29.87,10,5,1,17,11,29,0.00,7,Snow,277
2013-1-22,3,-3,-9,-4,-9,-15,80,71,56,30.15,30.09,30.00,10,7,1,14,7,20,0.00,6,Snow,269
2013-1-23,13,6,0,8,1,-6,82,77,67,30.14,30.05,29.96,10,4,0,14,6,20,0.00,8,Snow,241
2013-1-24,11,3,-5,7,-3,-10,83,68,46,30.52,30.40,30.11,10,10,0,9,3,,0.00,1,Snow,31
2013-1-25,18,14,11,14,8,-3,86,76,54,30.36,30.04,29.88,10,5,1,14,6,18,0.00,8,Snow,153
2013-1-26,25,16,8,16,13,5,89,76,58,30.33,30.18,29.97,10,9,2,9,3,,0.00,6,Snow,295
2013-1-27,28,20,11,26,18,7,88,79,61,30.33,30.23,29.99,10,7,0,15,6,18,0.00,8,Snow,160
2013-1-28,36,31,26,34,30,23,94,90,86,29.98,29.86,29.76,10,5,0,16,7,20,0.00,8,Fog-Snow,153
2013-1-29,49,40,32,47,38,30,93,92,90,29.93,29.63,29.40,10,5,0,15,8,18,0.00,8,Fog-Rain-Snow,153
2013-1-30,41,32,21,39,30,17,93,89,81,29.39,29.23,29.07,10,5,1,17,8,24,0.00,8,Rain-Snow,345
2013-1-31,21,18,14,17,11,7,84,76,66,29.75,29.46,29.22,10,4,0,21,15,29,0.00,8,Snow,282